Time,TemperatureF,DewpointF,PressureIn,WindDirection,WindDirectionDegrees,WindSpeedMPH,WindSpeedGustMPH,Humidity,HourlyPrecipIn,Conditions,Clouds,dailyrainin,SoftwareType,DateUTC
2013-02-27 00:12:00,38.1,34.0,30.11,ENE,61,6.0,7.0,85,0.00,,,0.00,weatherlink.com 1.10,2013-02-27 05:12:00,
2013-02-27 00:27:00,38.2,34.0,30.10,ESE,110,4.0,8.0,86,0.00,,,0.00,weatherlink.com 1.10,2013-02-27 05:27:00,
2013-02-27 00:42:00,38.3,35.0,30.10,ENE,76,2.0,7.0,86,0.00,,,0.00,weatherlink.com 1.10,2013-02-27 05:42:00,
2013-02-27 00:57:00,38.4,35.0,30.09,ENE,72,5.0,8.0,87,0.00,,,0.00,weatherlink.com 1.10,2013-02-27 05:57:00,
2013-02-27 01:12:00,38.2,35.0,30.08,ESE,115,8.0,9.0,88,0.00,,,0.00,weatherlink.com 1.10,2013-02-27 06:12:00,
2013-02-27 01:27:00,38.0,35.0,30.05,ENE,70,5.0,10.0,89,0.01,,,0.01,weatherlink.com 1.10,2013-02-27 06:27:00,
2013-02-27 01:42:00,37.9,35.0,30.05,ESE,107,4.0,8.0,90,0.01,,,0.01,weatherlink.com 1.10,2013-02-27 06:42:00,
2013-02-27 01:57:00,37.8,36.0,30.04,East,79,8.0,10.0,91,0.02,,,0.02,weatherlink.com 1.10,2013-02-27 06:57:00,
2013-02-27 02:12:00,37.8,36.0,30.03,East,100,2.0,6.0,91,0.02,,,0.02,weatherlink.com 1.10,2013-02-27 07:12:00,
2013-02-27 02:27:00,37.9,36.0,30.03,East,97,2.0,7.0,92,0.01,,,0.02,weatherlink.com 1.10,2013-02-27 07:27:00,
2013-02-27 02:42:00,38.1,36.0,30.02,East,95,3.0,6.0,92,0.01,,,0.02,weatherlink.com 1.10,2013-02-27 07:42:00,
2013-02-27 02:58:00,38.2,36.0,30.01,East,89,3.0,6.0,93,0.00,,,0.02,weatherlink.com 1.10,2013-02-27 07:58:00,
2013-02-27 03:13:00,38.4,37.0,30.00,ESE,121,2.0,4.0,93,0.00,,,0.02,weatherlink.com 1.10,2013-02-27 08:13:00,
2013-02-27 03:28:00,38.7,37.0,29.99,ENE,73,1.0,6.0,94,0.02,,,0.04,weatherlink.com 1.10,2013-02-27 08:28:00,
2013-02-27 03:43:00,38.9,37.0,29.99,East,80,6.0,6.0,94,0.05,,,0.07,weatherlink.com 1.10,2013-02-27 08:43:00,
2013-02-27 03:58:00,39.2,38.0,29.99,ENE,77,4.0,5.0,95,0.09,,,0.11,weatherlink.com 1.10,2013-02-27 08:58:00,
2013-02-27 04:13:00,39.9,39.0,29.98,NNE,18,5.0,8.0,95,0.11,,,0.13,weatherlink.com 1.10,2013-02-27 09:13:00,
2013-02-27 04:28:00,40.4,39.0,29.97,ENE,63,5.0,10.0,95,0.11,,,0.15,weatherlink.com 1.10,2013-02-27 09:28:00,
2013-02-27 04:43:00,41.0,40.0,29.96,ENE,71,5.0,8.0,96,0.11,,,0.18,weatherlink.com 1.10,2013-02-27 09:43:00,
2013-02-27 04:58:00,41.9,41.0,29.95,ESE,111,11.0,11.0,96,0.08,,,0.19,weatherlink.com 1.10,2013-02-27 09:58:00,
2013-02-27 05:13:00,42.5,41.0,29.93,East,82,8.0,12.0,95,0.06,,,0.19,weatherlink.com 1.10,2013-02-27 10:13:00,
2013-02-27 05:28:00,42.8,42.0,29.93,ESE,121,9.0,13.0,95,0.04,,,0.19,weatherlink.com 1.10,2013-02-27 10:28:00,
2013-02-27 05:43:00,43.0,42.0,29.92,ESE,103,6.0,14.0,95,0.02,,,0.20,weatherlink.com 1.10,2013-02-27 10:43:00,
2013-02-27 05:58:00,43.2,42.0,29.91,NE,56,10.0,14.0,95,0.01,,,0.20,weatherlink.com 1.10,2013-02-27 10:58:00,
2013-02-27 06:13:00,43.3,42.0,29.90,East,98,7.0,18.0,95,0.02,,,0.21,weatherlink.com 1.10,2013-02-27 11:13:00,
2013-02-27 06:28:00,43.3,42.0,29.88,ESE,104,10.0,19.0,95,0.03,,,0.22,weatherlink.com 1.10,2013-02-27 11:28:00,
2013-02-27 06:43:00,43.4,42.0,29.86,ENE,64,16.0,24.0,95,0.03,,,0.23,weatherlink.com 1.10,2013-02-27 11:43:00,
2013-02-27 06:58:00,43.5,42.0,29.86,SE,141,4.0,18.0,95,0.03,,,0.23,weatherlink.com 1.10,2013-02-27 11:58:00,
2013-02-27 07:13:00,43.4,42.0,29.86,ESE,104,7.0,16.0,95,0.03,,,0.24,weatherlink.com 1.10,2013-02-27 12:13:00,
2013-02-27 07:28:00,43.3,42.0,29.86,East,94,15.0,21.0,95,0.03,,,0.25,weatherlink.com 1.10,2013-02-27 12:28:00,
2013-02-27 07:43:00,43.4,42.0,29.86,East,91,11.0,18.0,95,0.02,,,0.25,weatherlink.com 1.10,2013-02-27 12:43:00,
2013-02-27 07:58:00,43.3,42.0,29.86,ENE,70,10.0,20.0,95,0.02,,,0.25,weatherlink.com 1.10,2013-02-27 12:58:00,
2013-02-27 08:13:00,43.3,42.0,29.85,SE,136,7.0,19.0,95,0.01,,,0.25,weatherlink.com 1.10,2013-02-27 13:13:00,
2013-02-27 08:28:00,43.2,42.0,29.86,ESE,108,10.0,22.0,95,0.00,,,0.25,weatherlink.com 1.10,2013-02-27 13:28:00,
2013-02-27 08:44:00,43.0,42.0,29.85,ESE,108,9.0,17.0,95,0.00,,,0.25,weatherlink.com 1.10,2013-02-27 13:44:00,
2013-02-27 08:58:00,43.0,42.0,29.85,East,86,8.0,22.0,95,0.00,,,0.25,weatherlink.com 1.10,2013-02-27 13:58:00,
2013-02-27 09:13:00,43.0,42.0,29.83,East,99,7.0,20.0,95,0.00,,,0.25,weatherlink.com 1.10,2013-02-27 14:13:00,
2013-02-27 09:28:00,42.9,42.0,29.82,East,82,6.0,18.0,95,0.00,,,0.25,weatherlink.com 1.10,2013-02-27 14:28:00,
2013-02-27 09:44:00,42.9,42.0,29.81,ESE,104,10.0,21.0,95,0.00,,,0.25,weatherlink.com 1.10,2013-02-27 14:44:00,
2013-02-27 09:59:00,42.9,42.0,29.81,ENE,72,6.0,20.0,95,0.00,,,0.25,weatherlink.com 1.10,2013-02-27 14:59:00,
2013-02-27 10:14:00,42.7,41.0,29.80,East,84,11.0,19.0,95,0.00,,,0.25,weatherlink.com 1.10,2013-02-27 15:14:00,
2013-02-27 10:29:00,42.6,41.0,29.79,ENE,66,8.0,17.0,95,0.00,,,0.25,weatherlink.com 1.10,2013-02-27 15:29:00,
2013-02-27 10:44:00,42.5,41.0,29.79,East,98,10.0,23.0,95,0.00,,,0.25,weatherlink.com 1.10,2013-02-27 15:44:00,
2013-02-27 10:59:00,42.5,41.0,29.77,East,86,15.0,22.0,95,0.00,,,0.25,weatherlink.com 1.10,2013-02-27 15:59:00,
2013-02-27 11:14:00,42.5,41.0,29.77,East,97,6.0,23.0,95,0.00,,,0.25,weatherlink.com 1.10,2013-02-27 16:14:00,
2013-02-27 11:29:00,42.4,41.0,29.76,East,87,8.0,19.0,95,0.00,,,0.25,weatherlink.com 1.10,2013-02-27 16:29:00,
2013-02-27 11:44:00,42.3,41.0,29.74,SE,133,6.0,19.0,95,0.00,,,0.25,weatherlink.com 1.10,2013-02-27 16:44:00,
2013-02-27 11:59:00,42.2,41.0,29.73,East,86,10.0,24.0,95,0.00,,,0.25,weatherlink.com 1.10,2013-02-27 16:59:00,
2013-02-27 12:14:00,42.1,41.0,29.73,ENE,68,15.0,23.0,95,0.00,,,0.25,weatherlink.com 1.10,2013-02-27 17:14:00,
2013-02-27 12:29:00,42.0,41.0,29.71,ENE,68,11.0,23.0,96,0.00,,,0.25,weatherlink.com 1.10,2013-02-27 17:29:00,
2013-02-27 12:44:00,42.0,41.0,29.70,ESE,103,5.0,26.0,96,0.00,,,0.25,weatherlink.com 1.10,2013-02-27 17:44:00,
2013-02-27 12:59:00,41.9,41.0,29.69,ESE,120,8.0,23.0,96,0.00,,,0.25,weatherlink.com 1.10,2013-02-27 17:59:00,
2013-02-27 13:14:00,42.0,41.0,29.68,SSE,160,10.0,19.0,96,0.00,,,0.25,weatherlink.com 1.10,2013-02-27 18:14:00,
2013-02-27 13:29:00,42.1,41.0,29.67,East,86,9.0,20.0,96,0.00,,,0.25,weatherlink.com 1.10,2013-02-27 18:29:00,
2013-02-27 13:44:00,42.2,41.0,29.66,East,79,9.0,23.0,96,0.00,,,0.25,weatherlink.com 1.10,2013-02-27 18:44:00,
2013-02-27 13:59:00,42.3,41.0,29.65,NE,49,9.0,18.0,96,0.00,,,0.25,weatherlink.com 1.10,2013-02-27 18:59:00,
2013-02-27 14:14:00,42.4,41.0,29.64,WSW,244,7.0,20.0,96,0.00,,,0.25,weatherlink.com 1.10,2013-02-27 19:14:00,
2013-02-27 14:29:00,42.5,42.0,29.62,East,87,13.0,20.0,96,0.00,,,0.25,weatherlink.com 1.10,2013-02-27 19:29:00,
2013-02-27 14:44:00,42.7,42.0,29.62,NNE,25,15.0,24.0,96,0.00,,,0.25,weatherlink.com 1.10,2013-02-27 19:44:00,
2013-02-27 14:59:00,42.8,42.0,29.62,WSW,246,5.0,18.0,96,0.00,,,0.25,weatherlink.com 1.10,2013-02-27 19:59:00,
2013-02-27 15:14:00,42.9,42.0,29.62,ESE,120,6.0,22.0,96,0.00,,,0.25,weatherlink.com 1.10,2013-02-27 20:14:00,
2013-02-27 15:29:00,43.0,42.0,29.61,East,89,9.0,17.0,97,0.00,,,0.25,weatherlink.com 1.10,2013-02-27 20:29:00,
2013-02-27 15:44:00,43.1,42.0,29.61,East,91,5.0,18.0,96,0.00,,,0.25,weatherlink.com 1.10,2013-02-27 20:44:00,
2013-02-27 15:59:00,43.1,42.0,29.61,SE,127,7.0,17.0,97,0.00,,,0.25,weatherlink.com 1.10,2013-02-27 20:59:00,
2013-02-27 16:14:00,43.1,42.0,29.60,ENE,77,2.0,19.0,97,0.00,,,0.25,weatherlink.com 1.10,2013-02-27 21:14:00,
2013-02-27 16:29:00,43.1,42.0,29.60,East,90,7.0,16.0,97,0.00,,,0.25,weatherlink.com 1.10,2013-02-27 21:29:00,
2013-02-27 16:44:00,43.2,42.0,29.60,East,85,4.0,14.0,97,0.00,,,0.25,weatherlink.com 1.10,2013-02-27 21:44:00,
2013-02-27 16:59:00,43.3,43.0,29.59,ENE,64,2.0,12.0,97,0.00,,,0.25,weatherlink.com 1.10,2013-02-27 21:59:00,
2013-02-27 17:14:00,43.2,42.0,29.59,SSE,153,0.0,12.0,97,0.00,,,0.25,weatherlink.com 1.10,2013-02-27 22:14:00,
2013-02-27 17:29:00,43.1,42.0,29.59,East,89,6.0,9.0,97,0.00,,,0.25,weatherlink.com 1.10,2013-02-27 22:29:00,
2013-02-27 17:44:00,43.2,42.0,29.59,ESE,104,2.0,8.0,97,0.00,,,0.25,weatherlink.com 1.10,2013-02-27 22:44:00,
2013-02-27 18:00:00,43.2,42.0,29.58,East,82,4.0,8.0,97,0.00,,,0.25,weatherlink.com 1.10,2013-02-27 23:00:00,
2013-02-27 18:15:00,43.5,43.0,29.58,ENE,63,2.0,5.0,97,0.00,,,0.25,weatherlink.com 1.10,2013-02-27 23:15:00,
2013-02-27 18:30:00,43.6,43.0,29.58,East,89,2.0,6.0,97,0.00,,,0.25,weatherlink.com 1.10,2013-02-27 23:30:00,
2013-02-27 18:45:00,43.7,43.0,29.57,East,91,5.0,9.0,97,0.00,,,0.25,weatherlink.com 1.10,2013-02-27 23:45:00,
2013-02-27 19:00:00,43.6,43.0,29.57,ESE,110,0.0,2.0,97,0.00,,,0.25,weatherlink.com 1.10,2013-02-28 00:00:00,
2013-02-27 19:15:00,43.7,43.0,29.57,ESE,120,0.0,2.0,97,0.00,,,0.25,weatherlink.com 1.10,2013-02-28 00:15:00,
2013-02-27 19:30:00,43.6,43.0,29.57,NE,56,0.0,2.0,97,0.01,,,0.26,weatherlink.com 1.10,2013-02-28 00:30:00,
2013-02-27 19:45:00,43.5,43.0,29.56,ESE,122,0.0,0.0,97,0.01,,,0.26,weatherlink.com 1.10,2013-02-28 00:45:00,
2013-02-27 20:00:00,43.5,43.0,29.56,ESE,107,0.0,1.0,97,0.01,,,0.26,weatherlink.com 1.10,2013-02-28 01:00:00,
2013-02-27 20:15:00,43.4,43.0,29.56,ESE,121,0.0,2.0,97,0.01,,,0.26,weatherlink.com 1.10,2013-02-28 01:15:00,
2013-02-27 20:30:00,43.1,42.0,29.56,SE,126,0.0,0.0,97,0.00,,,0.26,weatherlink.com 1.10,2013-02-28 01:30:00,
2013-02-27 20:45:00,43.0,42.0,29.56,West,276,0.0,0.0,97,0.00,,,0.26,weatherlink.com 1.10,2013-02-28 01:45:00,
2013-02-27 21:00:00,42.8,42.0,29.56,West,271,0.0,2.0,97,0.00,,,0.26,weatherlink.com 1.10,2013-02-28 02:00:00,
2013-02-27 21:15:00,42.7,42.0,29.56,WSW,243,0.0,2.0,97,0.00,,,0.26,weatherlink.com 1.10,2013-02-28 02:15:00,
2013-02-27 21:30:00,42.6,42.0,29.56,WSW,240,0.0,2.0,97,0.00,,,0.26,weatherlink.com 1.10,2013-02-28 02:30:00,
2013-02-27 21:45:00,42.6,42.0,29.56,SSE,150,0.0,0.0,97,0.00,,,0.26,weatherlink.com 1.10,2013-02-28 02:45:00,
2013-02-27 22:01:00,42.6,42.0,29.56,West,277,0.0,0.0,97,0.00,,,0.26,weatherlink.com 1.10,2013-02-28 03:01:00,
2013-02-27 22:15:00,42.7,42.0,29.56,West,266,0.0,0.0,97,0.00,,,0.26,weatherlink.com 1.10,2013-02-28 03:15:00,
2013-02-27 22:30:00,42.9,42.0,29.55,NNE,27,0.0,2.0,97,0.00,,,0.26,weatherlink.com 1.10,2013-02-28 03:30:00,
2013-02-27 22:45:00,42.9,42.0,29.55,West,280,2.0,5.0,97,0.00,,,0.26,weatherlink.com 1.10,2013-02-28 03:45:00,
2013-02-27 23:00:00,42.9,42.0,29.56,SW,236,3.0,5.0,97,0.00,,,0.26,weatherlink.com 1.10,2013-02-28 04:00:00,
2013-02-27 23:30:00,42.6,42.0,29.57,West,276,0.0,9.0,97,0.00,,,0.26,weatherlink.com 1.10,2013-02-28 04:30:00,
2013-02-27 23:45:00,42.4,42.0,29.56,SW,235,3.0,8.0,97,0.00,,,0.26,weatherlink.com 1.10,2013-02-28 04:45:00,